Huntsville, AL

10:31 PM CDT on June 27, 2017 (GMT -0500)
Huntsville International

Weather History for KHSV - July, 2013

Change the Weather History Date:

Sunday, July 21, 2013

  Actual Average Record
Temperature  
Mean Temperature 82 °F 81 °F  
Max Temperature 91 °F 91 °F 103 °F (1926)
Min Temperature 72 °F 71 °F 59 °F (1947)
Degree Days  
Heating Degree Days 0 0  
Month to date heating degree days 0 0  
Since 1 June heating degree days 0 1  
Since 1 July heating degree days 0 0  
Cooling Degree Days 17 16  
Month to date cooling degree days 299 328  
Year to date cooling degree days 956 971  
Since 1 June cooling degree days 723 708  
Growing Degree Days 32 (Base 50)    
Moisture  
Dew Point 71 °F    
Average Humidity 84    
Maximum Humidity 93    
Minimum Humidity 74    
Precipitation  
Precipitation 0.52 in 0.12 in 3.02 in (1979)
Month to date precipitation 8.59 2.87  
Year to date precipitation 39.92 31.53  
Snow  
Snow 0.00 in - - ()
Month to date snowfall 0.0  
Since 1 June snowfall 0.0  
Since 1 July snowfall 0.0  
Snow Depth 0.00 in    
Sea Level Pressure  
Sea Level Pressure 29.98 in    
Wind  
Wind Speed 7 mph (SW)    
Max Wind Speed 24 mph    
Max Gust Speed 30 mph    
Visibility 10 miles    
Events Rain , Thunderstorm    
T = Trace of Precipitation, MM = Missing Value Source: NWS Daily Summary

Daily Weather History Graph

Daily Weather History Graph

Search for Another Location

Airport or City:

Trip Planner

Search our weather history database for the weather conditions in past years. The results will help you decide how hot, cold, wet, or windy it might be!

Date:

Astronomy

Jul. 21, 2013 Rise Set
Actual Time 5:49 AM CDT 7:57 PM CDT
Civil Twilight 5:21 AM CDT 8:25 PM CDT
Nautical Twilight 4:46 AM CDT 9:00 PM CDT
Astronomical Twilight 4:09 AM CDT 9:37 PM CDT
Moon 6:56 PM CDT (7/21) 4:33 AM CDT (7/21)
Length of Visible Light 15h 04m
Length of Day
14h 07m
Waxing Gibbous, 98% of the Moon is Illuminated
Jul 21
Waxing Gibbous
Jul 22
Full
Jul 29
Last Quarter
Aug 6
New
Aug 14
First Quarter

Hourly Weather History & Observations

Time (CDT) Temp. Heat Index Dew Point Humidity Pressure Visibility Wind Dir Wind Speed Gust Speed Precip Events Conditions
12:53 AM 77.0 °F - 72.0 °F 84% 29.97 in 10.0 mi South 5.8 mph - N/A   Clear
1:53 AM 75.9 °F - 72.0 °F 87% 29.97 in 10.0 mi Calm Calm - N/A   Clear
2:53 AM 75.0 °F - 72.0 °F 90% 29.96 in 10.0 mi South 4.6 mph - N/A   Clear
3:53 AM 75.0 °F - 71.1 °F 87% 29.96 in 10.0 mi Calm Calm - N/A   Clear
4:53 AM 73.9 °F - 71.1 °F 91% 29.97 in 10.0 mi Calm Calm - N/A   Clear
5:53 AM 73.0 °F - 71.1 °F 93% 29.98 in 10.0 mi ESE 4.6 mph - N/A   Scattered Clouds
6:53 AM 75.0 °F - 72.0 °F 90% 29.99 in 10.0 mi SSE 4.6 mph - N/A   Scattered Clouds
7:15 AM 75.2 °F - 71.6 °F 89% 30.02 in 10.0 mi South 5.8 mph - N/A   Mostly Cloudy
7:53 AM 77.0 °F - 72.0 °F 84% 30.00 in 10.0 mi SSW 5.8 mph - N/A   Scattered Clouds
8:53 AM 81.0 °F 85.8 °F 73.0 °F 77% 30.00 in 10.0 mi South 6.9 mph - N/A   Scattered Clouds
9:53 AM 82.9 °F 88.8 °F 73.0 °F 72% 30.01 in 10.0 mi West 6.9 mph - N/A   Mostly Cloudy
10:53 AM 86.0 °F 93.8 °F 73.9 °F 67% 30.00 in 10.0 mi WSW 6.9 mph - N/A Thunderstorm Thunderstorm
11:20 AM 87.8 °F 95.6 °F 73.4 °F 62% 30.02 in 10.0 mi West 10.4 mph - N/A   Scattered Clouds
11:53 AM 89.1 °F 98.0 °F 73.9 °F 61% 29.99 in 10.0 mi SW 9.2 mph 16.1 mph N/A Thunderstorm Thunderstorm
12:32 PM 84.2 °F 87.3 °F 68.0 °F 58% 29.99 in 10.0 mi WNW 10.4 mph - N/A   Mostly Cloudy
12:53 PM 89.1 °F 92.1 °F 66.9 °F 48% 29.96 in 10.0 mi WNW 11.5 mph - N/A   Scattered Clouds
1:42 PM 91.4 °F 98.4 °F 71.6 °F 52% 29.97 in 10.0 mi West 10.4 mph - N/A Thunderstorm Thunderstorm
1:53 PM 89.1 °F 94.1 °F 70.0 °F 53% 29.95 in 10.0 mi West 17.3 mph 26.5 mph N/A Thunderstorm Thunderstorm
2:03 PM 75.2 °F - 71.6 °F 89% 29.98 in 0.5 mi WNW 23.0 mph 29.9 mph 0.04 in Rain , Thunderstorm Heavy Thunderstorms and Rain
2:13 PM 78.8 °F - 69.8 °F 74% 29.98 in 0.5 mi NW 8.1 mph 29.9 mph 0.44 in Rain , Thunderstorm Heavy Thunderstorms and Rain
2:20 PM 80.6 °F 84.6 °F 71.6 °F 74% 29.97 in 10.0 mi NW 8.1 mph 16.1 mph 0.44 in Rain , Thunderstorm Light Thunderstorms and Rain
2:53 PM 84.9 °F 90.1 °F 71.1 °F 63% 29.93 in 10.0 mi NW 10.4 mph - 0.44 in   Mostly Cloudy
3:53 PM 80.1 °F 83.8 °F 72.0 °F 76% 29.95 in 10.0 mi SSE 11.5 mph - N/A   Mostly Cloudy
4:53 PM 80.1 °F 84.2 °F 73.0 °F 79% 29.95 in 10.0 mi SE 9.2 mph - N/A   Mostly Cloudy
5:53 PM 78.1 °F - 70.0 °F 76% 29.97 in 10.0 mi NNW 10.4 mph - N/A   Mostly Cloudy
6:53 PM 75.9 °F - 69.1 °F 79% 29.98 in 10.0 mi NNW 3.5 mph - 0.00 in Rain Light Rain
7:53 PM 73.9 °F - 70.0 °F 87% 29.97 in 10.0 mi East 4.6 mph - 0.08 in Rain Light Rain
8:53 PM 73.9 °F - 71.1 °F 91% 29.99 in 10.0 mi South 4.6 mph - 0.00 in   Overcast
9:53 PM 73.9 °F - 72.0 °F 93% 30.01 in 10.0 mi WSW 6.9 mph - 0.00 in   Overcast
10:11 PM 73.4 °F - 71.6 °F 94% 30.03 in 10.0 mi SW 12.7 mph 21.9 mph N/A   Mostly Cloudy
10:53 PM 73.0 °F - 70.0 °F 90% 29.98 in 10.0 mi SSE 6.9 mph - N/A   Overcast
11:53 PM 72.0 °F - 70.0 °F 93% 29.96 in 10.0 mi SE 5.8 mph - N/A   Overcast